TimeMDT,TemperatureF,Dew PointF,Humidity,Sea Level PressureIn,VisibilityMPH,Wind Direction,Wind SpeedMPH,Gust SpeedMPH,PrecipitationIn,Events,Conditions,WindDirDegrees,DateUTC
12:53 AM,48.0,44.1,86,29.85,10.0,SW,11.5,-,N/A,,Scattered Clouds,230,2013-05-08 06:53:00
1:53 AM,46.9,43.0,86,29.83,10.0,SW,10.4,-,N/A,,Scattered Clouds,230,2013-05-08 07:53:00
2:53 AM,46.0,41.0,83,29.82,10.0,WSW,6.9,-,N/A,,Scattered Clouds,250,2013-05-08 08:53:00
3:53 AM,46.0,41.0,83,29.82,10.0,SSW,11.5,-,N/A,,Partly Cloudy,210,2013-05-08 09:53:00
4:53 AM,46.0,39.9,79,29.83,10.0,SSW,10.4,-,N/A,,Partly Cloudy,210,2013-05-08 10:53:00
5:53 AM,45.0,39.9,82,29.84,10.0,SW,9.2,-,N/A,,Mostly Cloudy,230,2013-05-08 11:53:00
6:53 AM,46.9,39.9,77,29.87,10.0,SW,8.1,-,N/A,,Mostly Cloudy,230,2013-05-08 12:53:00
7:53 AM,50.0,42.1,74,29.90,10.0,SW,8.1,-,N/A,,Mostly Cloudy,230,2013-05-08 13:53:00
8:53 AM,52.0,42.1,69,29.91,10.0,SSW,8.1,-,N/A,,Overcast,210,2013-05-08 14:53:00
9:53 AM,51.1,44.1,77,29.92,10.0,SSW,15.0,-,0.00,,Overcast,210,2013-05-08 15:53:00
10:53 AM,55.0,43.0,64,29.90,10.0,West,10.4,-,N/A,,Overcast,270,2013-05-08 16:53:00
11:53 AM,55.9,44.1,64,29.90,10.0,West,13.8,-,N/A,,Overcast,270,2013-05-08 17:53:00
12:53 PM,60.1,43.0,53,29.87,10.0,WNW,10.4,-,N/A,,Mostly Cloudy,290,2013-05-08 18:53:00
1:53 PM,60.1,39.0,46,29.86,10.0,Calm,Calm,-,N/A,,Mostly Cloudy,0,2013-05-08 19:53:00
2:45 PM,51.8,41.0,67,30.02,10.0,SSE,24.2,33.4,N/A,,Overcast,160,2013-05-08 20:45:00
2:53 PM,50.0,42.1,74,29.94,10.0,South,27.6,33.4,N/A,Thunderstorm,Thunderstorm,180,2013-05-08 20:53:00
3:20 PM,48.2,42.8,82,30.00,10.0,South,29.9,36.8,0.00,Rain,Light Rain,190,2013-05-08 21:20:00
3:53 PM,48.0,41.0,77,29.91,10.0,SSW,26.5,35.7,0.00,Rain-Thunderstorm,Light Thunderstorms and Rain,210,2013-05-08 21:53:00
4:22 PM,46.4,42.8,87,30.04,2.0,South,12.7,-,0.05,Rain-Thunderstorm,Heavy Thunderstorms and Rain,170,2013-05-08 22:22:00
4:33 PM,46.4,42.8,87,30.04,4.0,South,8.1,-,0.08,Rain,Rain,190,2013-05-08 22:33:00
4:53 PM,46.9,43.0,86,29.96,4.0,South,8.1,-,0.13,Rain,Rain,190,2013-05-08 22:53:00
5:53 PM,48.9,43.0,80,29.96,10.0,SW,4.6,-,0.02,,Overcast,230,2013-05-08 23:53:00
6:53 PM,48.0,44.1,86,29.95,10.0,West,11.5,-,0.03,,Mostly Cloudy,280,2013-05-09 00:53:00
7:53 PM,48.0,44.1,86,29.97,10.0,WNW,6.9,-,0.00,Rain,Light Rain,300,2013-05-09 01:53:00
8:16 PM,48.2,44.6,87,30.07,10.0,NW,8.1,-,0.00,,Overcast,310,2013-05-09 02:16:00
8:53 PM,48.0,44.1,86,29.98,10.0,North,8.1,-,0.00,,Overcast,350,2013-05-09 02:53:00
9:42 PM,48.2,44.6,87,30.09,6.0,NNE,9.2,-,N/A,,Overcast,30,2013-05-09 03:42:00
9:53 PM,46.9,45.0,93,30.00,5.0,NNE,10.4,-,N/A,,Overcast,20,2013-05-09 03:53:00
10:53 PM,46.9,45.0,93,29.99,5.0,Calm,Calm,-,0.01,Rain,Light Rain,0,2013-05-09 04:53:00
11:53 PM,46.9,45.0,93,29.98,7.0,NW,12.7,-,0.05,,Overcast,320,2013-05-09 05:53:00